Location: La Fredeussais
(48.1780°N, 1.3980°W)
Time: 20:39:30
(UTC+00:00)

PRISM - Pass Details

Date: 04 November 2021
Orbit: 561 x 584 km, 98.2° (Epoch: 03 December)

Event Time Altitude Azimuth Distance (km) Brightness Sun altitude
Rises 05:40:57 0° 357° (N) 2,789 ? -12.8°
Reaches altitude 10° 05:44:08 10° 330° (NNW) 1,880 ? -12.3°
Enters shadow 05:45:03 12° 317° (NW) 1,737 ? -12.1°
